When you browse on this site, cookies collect data to enhance your experience and personalize the content and advertising you see.
Visit our Privacy Policy to learn more. By continuing to use the site, you agree to this use of cookies and data.
  • In Portugal
  • List of Countries
  • For 7 days
  • Water Temperature
  • Satellite Maps
  • Weather Map
  • Weather Widgets
  • user-avatar
    Login

    Hourly Weather Belick

    Today, 24 April, Wednesday

    Time Temperature Precipitation Wind Pressure Humidity
    00:00 +12°C° 0 mm 1 mps 758 mmHg 53%
    01:00 +11°C° 0 mm 1 mps 758 mmHg 55%
    02:00 +11°C° 0 mm 1 mps 758 mmHg 56%
    03:00 +11°C° 0 mm 1 mps 758 mmHg 58%
    04:00 +10°C° 0 mm 1 mps 758 mmHg 59%
    05:00 +10°C° 0 mm 1 mps 758 mmHg 61%
    06:00 +12°C° 0 mm 1 mps 759 mmHg 57%
    07:00 +14°C° 0 mm 1 mps 759 mmHg 54%
    08:00 +16°C° 0 mm 2 mps 759 mmHg 50%
    09:00 +17°C° 0 mm 2 mps 759 mmHg 45%
    10:00 +19°C° 0 mm 2 mps 759 mmHg 40%
    11:00 +20°C° 0 mm 3 mps 759 mmHg 34%
    12:00 +21°C° 0 mm 3 mps 758 mmHg 33%
    13:00 +21°C° 0 mm 3 mps 758 mmHg 31%
    14:00 +22°C° 0 mm 3 mps 758 mmHg 30%
    15:00 +21°C° 0 mm 3 mps 758 mmHg 31%
    16:00 +21°C° 0 mm 3 mps 757 mmHg 33%
    17:00 +21°C° 0 mm 2 mps 757 mmHg 34%
    18:00 +19°C° 0 mm 2 mps 757 mmHg 38%
    19:00 +17°C° 0 mm 2 mps 757 mmHg 43%
    20:00 +15°C° 0 mm 2 mps 757 mmHg 47%
    21:00 +14°C° 0 mm 2 mps 757 mmHg 48%
    22:00 +14°C° 0 mm 2 mps 757 mmHg 50%
    23:00 +13°C° 0 mm 2 mps 757 mmHg 51%

    Tomorrow, 25 April, Thursday

    Time Temperature Precipitation Wind Pressure Humidity
    00:00 +13°C° 0 mm 1 mps 757 mmHg 52%
    01:00 +12°C° 0 mm 1 mps 757 mmHg 54%
    02:00 +12°C° 0 mm 1 mps 757 mmHg 55%
    03:00 +11°C° 0 mm 1 mps 757 mmHg 56%
    04:00 +11°C° 0 mm 1 mps 757 mmHg 56%
    05:00 +11°C° 0 mm 1 mps 757 mmHg 57%
    06:00 +13°C° 0 mm 1 mps 757 mmHg 54%
    07:00 +15°C° 0 mm 2 mps 757 mmHg 50%
    08:00 +17°C° 0 mm 2 mps 757 mmHg 46%
    09:00 +18°C° 0 mm 3 mps 757 mmHg 42%
    10:00 +19°C° 0 mm 3 mps 757 mmHg 38%
    11:00 +21°C° 0 mm 4 mps 757 mmHg 34%
    12:00 +21°C° 0 mm 4 mps 756 mmHg 33%
    13:00 +22°C° 0 mm 4 mps 756 mmHg 32%
    14:00 +22°C° 0 mm 4 mps 756 mmHg 31%
    15:00 +22°C° 0 mm 4 mps 755 mmHg 33%
    16:00 +22°C° 0 mm 4 mps 755 mmHg 35%
    17:00 +21°C° 0 mm 3 mps 755 mmHg 37%
    18:00 +19°C° 0 mm 3 mps 755 mmHg 41%
    19:00 +17°C° 0 mm 3 mps 755 mmHg 46%
    20:00 +15°C° 0 mm 2 mps 754 mmHg 50%
    21:00 +15°C° 0 mm 2 mps 755 mmHg 53%
    22:00 +14°C° 0 mm 2 mps 755 mmHg 55%
    23:00 +13°C° 0 mm 2 mps 755 mmHg 58%

    Day after tomorrow, 26 April, Friday

    Time Temperature Precipitation Wind Pressure Humidity
    00:00 +13°C° 0 mm 2 mps 755 mmHg 60%
    01:00 +12°C° 0 mm 2 mps 754 mmHg 61%
    02:00 +12°C° 0 mm 2 mps 754 mmHg 63%
    03:00 +12°C° 0 mm 2 mps 754 mmHg 65%
    04:00 +10°C° 0 mm 2 mps 754 mmHg 67%
    05:00 +10°C° 0 mm 2 mps 754 mmHg 68%
    06:00 +12°C° 0 mm 3 mps 754 mmHg 64%
    07:00 +14°C° 0 mm 3 mps 754 mmHg 59%
    08:00 +17°C° 0 mm 4 mps 753 mmHg 55%
    09:00 +18°C° 0 mm 4 mps 753 mmHg 49%
    10:00 +20°C° 0 mm 5 mps 753 mmHg 44%
    11:00 +21°C° 0 mm 6 mps 753 mmHg 38%
    12:00 +22°C° 0 mm 6 mps 752 mmHg 38%
    13:00 +22°C° 0 mm 6 mps 752 mmHg 37%
    14:00 +22°C° 0 mm 6 mps 752 mmHg 37%
    15:00 +22°C° 0 mm 5 mps 751 mmHg 38%
    16:00 +22°C° 0 mm 5 mps 751 mmHg 39%
    17:00 +21°C° 0 mm 5 mps 750 mmHg 41%
    18:00 +19°C° 0 mm 4 mps 750 mmHg 44%
    19:00 +17°C° 0 mm 4 mps 750 mmHg 48%
    20:00 +14°C° 0 mm 3 mps 750 mmHg 52%
    21:00 +14°C° 0 mm 3 mps 750 mmHg 52%
    22:00 +13°C° 0 mm 3 mps 750 mmHg 53%
    23:00 +12°C° 0 mm 3 mps 750 mmHg 53%

    27 April, Saturday

    Time Temperature Precipitation Wind Pressure Humidity
    00:00 +12°C° 0 mm 3 mps 749 mmHg 55%
    01:00 +12°C° 0 mm 3 mps 749 mmHg 57%
    02:00 +11°C° 0 mm 3 mps 749 mmHg 59%
    03:00 +11°C° 0 mm 3 mps 749 mmHg 60%
    04:00 +11°C° 0 mm 4 mps 748 mmHg 62%
    05:00 +11°C° 0 mm 4 mps 748 mmHg 63%
    06:00 +12°C° 0 mm 4 mps 748 mmHg 63%
    07:00 +14°C° 0 mm 4 mps 747 mmHg 63%
    08:00 +15°C° 0 mm 4 mps 747 mmHg 63%
    09:00 +16°C° 0 mm 5 mps 747 mmHg 58%
    10:00 +19°C° 0 mm 5 mps 747 mmHg 54%
    11:00 +21°C° 0 mm 6 mps 747 mmHg 49%
    12:00 +21°C° 0 mm 6 mps 746 mmHg 47%
    13:00 +22°C° 0 mm 6 mps 746 mmHg 45%
    14:00 +23°C° 0 mm 6 mps 745 mmHg 43%
    15:00 +23°C° 0 mm 5 mps 745 mmHg 46%
    16:00 +23°C° 0 mm 5 mps 745 mmHg 48%
    17:00 +23°C° 0 mm 4 mps 744 mmHg 51%
    18:00 +21°C° 0.6 mm 3 mps 744 mmHg 59%
    19:00 +19°C° 0.6 mm 3 mps 744 mmHg 67%
    20:00 +18°C° 0.6 mm 2 mps 744 mmHg 76%
    21:00 +17°C° 0.2 mm 2 mps 744 mmHg 79%
    22:00 +16°C° 0.2 mm 2 mps 744 mmHg 83%
    23:00 +16°C° 0.2 mm 2 mps 744 mmHg 86%

    28 April, Sunday

    Time Temperature Precipitation Wind Pressure Humidity
    00:00 +15°C° 0.2 mm 1 mps 744 mmHg 89%
    01:00 +15°C° 0.2 mm 1 mps 744 mmHg 91%
    02:00 +14°C° 0.2 mm 1 mps 744 mmHg 94%
    03:00 +14°C° 0 mm 1 mps 744 mmHg 94%
    04:00 +14°C° 0 mm 1 mps 744 mmHg 95%
    05:00 +14°C° 0 mm 1 mps 744 mmHg 95%
    06:00 +15°C° 0 mm 1 mps 744 mmHg 90%
    07:00 +18°C° 0 mm 1 mps 745 mmHg 85%
    08:00 +18°C° 0 mm 2 mps 745 mmHg 79%
    09:00 +19°C° 0.3 mm 2 mps 745 mmHg 74%
    10:00 +21°C° 0.3 mm 2 mps 745 mmHg 68%
    11:00 +23°C° 0.3 mm 2 mps 745 mmHg 62%
    12:00 +22°C° 0.8 mm 3 mps 745 mmHg 61%
    13:00 +22°C° 0.8 mm 3 mps 745 mmHg 60%
    14:00 +23°C° 0.8 mm 4 mps 745 mmHg 59%
    15:00 +22°C° 0.4 mm 4 mps 746 mmHg 61%
    16:00 +21°C° 0.4 mm 4 mps 746 mmHg 63%
    17:00 +21°C° 0.4 mm 5 mps 746 mmHg 66%
    18:00 +19°C° 0 mm 5 mps 746 mmHg 71%
    19:00 +18°C° 0 mm 4 mps 747 mmHg 76%
    20:00 +15°C° 0 mm 4 mps 747 mmHg 81%
    21:00 +15°C° 0 mm 4 mps 747 mmHg 84%
    22:00 +14°C° 0 mm 5 mps 748 mmHg 86%
    23:00 +13°C° 0 mm 5 mps 748 mmHg 88%

    29 April, Monday

    Time Temperature Precipitation Wind Pressure Humidity
    00:00 +13°C° 0 mm 5 mps 748 mmHg 88%
    01:00 +12°C° 0 mm 5 mps 748 mmHg 88%
    02:00 +10°C° 0 mm 5 mps 749 mmHg 88%
    03:00 +10°C° 0 mm 5 mps 749 mmHg 86%
    04:00 +9°C° 0 mm 5 mps 749 mmHg 85%
    05:00 +9°C° 0 mm 6 mps 749 mmHg 83%
    06:00 +9°C° 0 mm 6 mps 750 mmHg 79%
    07:00 +10°C° 0 mm 6 mps 750 mmHg 74%
    08:00 +10°C° 0 mm 6 mps 750 mmHg 70%
    09:00 +13°C° 0 mm 6 mps 750 mmHg 66%
    10:00 +14°C° 0 mm 7 mps 751 mmHg 62%
    11:00 +16°C° 0 mm 7 mps 751 mmHg 58%
    12:00 +16°C° 0 mm 7 mps 751 mmHg 58%
    13:00 +16°C° 0 mm 6 mps 751 mmHg 58%
    14:00 +16°C° 0 mm 6 mps 751 mmHg 57%
    15:00 +16°C° 0 mm 6 mps 751 mmHg 57%
    16:00 +16°C° 0 mm 6 mps 751 mmHg 57%
    17:00 +15°C° 0 mm 5 mps 751 mmHg 57%
    18:00 +14°C° 0 mm 5 mps 751 mmHg 59%
    19:00 +13°C° 0 mm 4 mps 751 mmHg 61%
    20:00 +13°C° 0 mm 4 mps 752 mmHg 63%
    21:00 +12°C° 0 mm 4 mps 752 mmHg 63%
    22:00 +10°C° 0 mm 5 mps 752 mmHg 63%
    23:00 +9°C° 0 mm 5 mps 752 mmHg 63%
    Show more